Location: Bishop�s Knoyle
(51.0728°N, 2.1714°W)
Time: 13:03:13
(UTC+00:00)

NOSS 3-4 (C) - Pass Details

Date: 26 January 2021
Orbit: 878 x 1335 km, 63.4° (Epoch: 16 February)

Event Time Altitude Azimuth Distance (km) Brightness Sun altitude
Rises 20:50:39 0° 311° (NW) 3,703 7.3 -37.4°
Reaches altitude 10° 20:53:15 10° 317° (NW) 2,812 6.5 -37.8°
Enters shadow 20:57:01 33° 341° (NNW) 1,721 4.9 -38.4°
